EN

Hourly Weather La Châtre

Today, 23 July, Friday

Time Temperature Precipitation Wind Pressure Humidity
00:00 +18°C° 0 mm 2 mps 741 mmHg 92%
01:00 +18°C° 0 mm 2 mps 741 mmHg 92%
02:00 +17°C° 0 mm 2 mps 740 mmHg 92%
03:00 +17°C° 0 mm 2 mps 740 mmHg 92%
04:00 +18°C° 0 mm 3 mps 740 mmHg 89%
05:00 +19°C° 0 mm 3 mps 739 mmHg 86%
06:00 +19°C° 0 mm 3 mps 739 mmHg 83%
07:00 +22°C° 0 mm 3 mps 739 mmHg 74%
08:00 +25°C° 0 mm 4 mps 739 mmHg 65%
09:00 +28°C° 0 mm 4 mps 738 mmHg 56%
10:00 +29°C° 0 mm 4 mps 738 mmHg 51%
11:00 +32°C° 0 mm 4 mps 737 mmHg 46%
12:00 +34°C° 0 mm 4 mps 737 mmHg 42%
13:00 +34°C° 0 mm 3 mps 736 mmHg 41%
14:00 +35°C° 0 mm 3 mps 736 mmHg 40%
15:00 +36°C° 0 mm 2 mps 736 mmHg 39%
16:00 +34°C° 0 mm 2 mps 736 mmHg 46%
17:00 +33°C° 0 mm 3 mps 735 mmHg 53%
18:00 +30°C° 0 mm 3 mps 735 mmHg 61%
19:00 +27°C° 1.6 mm 3 mps 736 mmHg 72%
20:00 +25°C° 1.6 mm 4 mps 736 mmHg 83%
21:00 +21°C° 1.6 mm 5 mps 737 mmHg 93%
22:00 +20°C° 2.6 mm 4 mps 737 mmHg 94%
23:00 +19°C° 2.6 mm 3 mps 737 mmHg 95%

Tomorrow, 24 July, Saturday

Time Temperature Precipitation Wind Pressure Humidity
00:00 +19°C° 2.6 mm 3 mps 737 mmHg 96%
01:00 +18°C° 0 mm 3 mps 737 mmHg 96%
02:00 +18°C° 0 mm 3 mps 737 mmHg 96%
03:00 +17°C° 0 mm 3 mps 737 mmHg 96%
04:00 +17°C° 0 mm 3 mps 738 mmHg 95%
05:00 +17°C° 0 mm 3 mps 738 mmHg 94%
06:00 +17°C° 0 mm 3 mps 738 mmHg 93%
07:00 +18°C° 0 mm 3 mps 738 mmHg 88%
08:00 +19°C° 0 mm 4 mps 738 mmHg 82%
09:00 +19°C° 0 mm 4 mps 738 mmHg 77%
10:00 +21°C° 0 mm 4 mps 738 mmHg 69%
11:00 +23°C° 0 mm 4 mps 738 mmHg 60%
12:00 +26°C° 0 mm 5 mps 738 mmHg 52%
13:00 +26°C° 0 mm 5 mps 738 mmHg 52%
14:00 +25°C° 0 mm 4 mps 738 mmHg 52%
15:00 +25°C° 0 mm 4 mps 737 mmHg 53%
16:00 +25°C° 0 mm 4 mps 737 mmHg 55%
17:00 +23°C° 0 mm 4 mps 737 mmHg 57%
18:00 +23°C° 0 mm 4 mps 737 mmHg 59%
19:00 +21°C° 0 mm 3 mps 737 mmHg 65%
20:00 +19°C° 0 mm 3 mps 738 mmHg 71%
21:00 +18°C° 0 mm 2 mps 738 mmHg 78%
22:00 +17°C° 0 mm 2 mps 738 mmHg 80%
23:00 +16°C° 0 mm 3 mps 737 mmHg 83%

Day after tomorrow, 25 July, Sunday

Time Temperature Precipitation Wind Pressure Humidity
00:00 +16°C° 0 mm 3 mps 737 mmHg 86%
01:00 +16°C° 0 mm 3 mps 737 mmHg 85%
02:00 +17°C° 0 mm 4 mps 737 mmHg 84%
03:00 +16°C° 0 mm 5 mps 737 mmHg 83%
04:00 +16°C° 0 mm 5 mps 737 mmHg 83%
05:00 +17°C° 0 mm 5 mps 737 mmHg 83%
06:00 +17°C° 0 mm 5 mps 737 mmHg 83%
07:00 +19°C° 0 mm 5 mps 737 mmHg 80%
08:00 +19°C° 0 mm 5 mps 737 mmHg 78%
09:00 +20°C° 0 mm 6 mps 737 mmHg 75%
10:00 +21°C° 0.2 mm 6 mps 737 mmHg 71%
11:00 +22°C° 0.2 mm 6 mps 737 mmHg 66%
12:00 +23°C° 0.2 mm 7 mps 737 mmHg 62%
13:00 +24°C° 0.2 mm 6 mps 737 mmHg 60%
14:00 +24°C° 0.2 mm 6 mps 737 mmHg 58%
15:00 +25°C° 0.2 mm 5 mps 737 mmHg 57%
16:00 +23°C° 0.1 mm 5 mps 737 mmHg 61%
17:00 +22°C° 0.1 mm 4 mps 737 mmHg 66%
18:00 +21°C° 0.1 mm 3 mps 738 mmHg 70%
19:00 +20°C° 0 mm 3 mps 738 mmHg 76%
20:00 +19°C° 0 mm 3 mps 738 mmHg 81%
21:00 +17°C° 0 mm 2 mps 739 mmHg 87%
22:00 +17°C° 0 mm 2 mps 739 mmHg 89%
23:00 +16°C° 0 mm 2 mps 739 mmHg 92%

26 July, Monday

Time Temperature Precipitation Wind Pressure Humidity
00:00 +16°C° 0 mm 2 mps 739 mmHg 94%
01:00 +15°C° 0 mm 2 mps 739 mmHg 95%
02:00 +15°C° 0 mm 2 mps 739 mmHg 96%
03:00 +15°C° 0 mm 2 mps 739 mmHg 97%
04:00 +15°C° 0 mm 2 mps 740 mmHg 96%
05:00 +16°C° 0 mm 2 mps 740 mmHg 94%
06:00 +16°C° 0 mm 2 mps 740 mmHg 93%
07:00 +17°C° 0 mm 2 mps 741 mmHg 89%
08:00 +18°C° 0 mm 2 mps 741 mmHg 84%
09:00 +19°C° 0 mm 3 mps 741 mmHg 80%
10:00 +21°C° 0 mm 3 mps 741 mmHg 70%
11:00 +24°C° 0 mm 3 mps 741 mmHg 61%
12:00 +25°C° 0 mm 3 mps 741 mmHg 52%
13:00 +26°C° 0 mm 3 mps 741 mmHg 50%
14:00 +26°C° 0 mm 3 mps 741 mmHg 48%
15:00 +27°C° 0 mm 2 mps 741 mmHg 46%
16:00 +26°C° 0 mm 2 mps 740 mmHg 51%
17:00 +25°C° 0 mm 2 mps 740 mmHg 55%
18:00 +25°C° 0 mm 1 mps 740 mmHg 60%
19:00 +24°C° 0 mm 2 mps 740 mmHg 63%
20:00 +21°C° 0 mm 2 mps 741 mmHg 65%
21:00 +20°C° 0 mm 3 mps 741 mmHg 68%
22:00 +19°C° 0 mm 3 mps 741 mmHg 71%
23:00 +19°C° 0 mm 3 mps 741 mmHg 73%

27 July, Tuesday

Time Temperature Precipitation Wind Pressure Humidity
00:00 +18°C° 0 mm 3 mps 741 mmHg 76%
01:00 +18°C° 0 mm 2 mps 741 mmHg 79%
02:00 +17°C° 0 mm 2 mps 741 mmHg 81%
03:00 +17°C° 0 mm 2 mps 740 mmHg 84%
04:00 +17°C° 0 mm 2 mps 741 mmHg 84%
05:00 +17°C° 0 mm 2 mps 741 mmHg 83%
06:00 +18°C° 0 mm 2 mps 741 mmHg 83%
07:00 +18°C° 0.1 mm 2 mps 741 mmHg 80%
08:00 +19°C° 0.1 mm 2 mps 742 mmHg 77%
09:00 +20°C° 0.1 mm 2 mps 742 mmHg 75%
10:00 +21°C° 0.1 mm 2 mps 742 mmHg 69%
11:00 +21°C° 0.1 mm 2 mps 741 mmHg 64%
12:00 +23°C° 0.1 mm 2 mps 741 mmHg 59%
13:00 +24°C° 0 mm 2 mps 741 mmHg 56%
14:00 +25°C° 0 mm 2 mps 741 mmHg 53%
15:00 +26°C° 0 mm 2 mps 741 mmHg 50%
16:00 +25°C° 0 mm 2 mps 741 mmHg 53%
17:00 +25°C° 0 mm 2 mps 741 mmHg 57%
18:00 +24°C° 0 mm 1 mps 741 mmHg 60%
19:00 +23°C° 0 mm 2 mps 741 mmHg 63%
20:00 +20°C° 0 mm 2 mps 741 mmHg 67%
21:00 +19°C° 0 mm 2 mps 742 mmHg 70%
22:00 +18°C° 0 mm 2 mps 742 mmHg 73%
23:00 +17°C° 0 mm 2 mps 741 mmHg 77%

28 July, Wednesday

Time Temperature Precipitation Wind Pressure Humidity
00:00 +16°C° 0 mm 2 mps 741 mmHg 81%
01:00 +15°C° 0 mm 2 mps 741 mmHg 83%
02:00 +15°C° 0 mm 2 mps 741 mmHg 86%
03:00 +14°C° 0 mm 1 mps 741 mmHg 89%
04:00 +15°C° 0 mm 1 mps 741 mmHg 87%
05:00 +16°C° 0 mm 1 mps 741 mmHg 86%
06:00 +16°C° 0 mm 1 mps 741 mmHg 84%
07:00 +18°C° 0 mm 2 mps 741 mmHg 78%
08:00 +20°C° 0 mm 2 mps 742 mmHg 71%
09:00 +21°C° 0 mm 2 mps 742 mmHg 65%
10:00 +22°C° 0 mm 3 mps 742 mmHg 63%
11:00 +22°C° 0 mm 3 mps 742 mmHg 62%
12:00 +24°C° 0 mm 3 mps 742 mmHg 61%
13:00 +24°C° 0 mm 3 mps 742 mmHg 58%
14:00 +25°C° 0 mm 3 mps 742 mmHg 55%
15:00 +25°C° 0 mm 2 mps 741 mmHg 52%
16:00 +25°C° 0 mm 2 mps 741 mmHg 54%
17:00 +25°C° 0 mm 1 mps 741 mmHg 57%
18:00 +25°C° 0 mm 1 mps 741 mmHg 59%
19:00 +24°C° 0 mm 1 mps 741 mmHg 62%
20:00 +22°C° 0 mm 1 mps 741 mmHg 66%
21:00 +19°C° 0 mm 2 mps 741 mmHg 69%
22:00 +18°C° 0 mm 2 mps 741 mmHg 70%
23:00 +17°C° 0 mm 2 mps 741 mmHg 72%
Show more